[[{"header":{"parameterUnit":"m.s-1","parameterCategory":1,"la1":30.2992,"la2":30.254,"lo1":-89.0895,"lo2":-89.0443,"dy":0.0025,"dx":0.0025,"nx":19,"ny":19,"refTime":"2026-04-19T21:00:00:Z","depth":0,"parameterNumber":2,"parameterNumberName":"U-component_of_WINDS"},"data":[0,0,0,-3.2417,-3.2422,-3.2629,-3.2629,-3.2939,-3.2943,0,0,0,0,0,0,0,0,0,0,0,-3.238,-3.2383,-3.2416,-3.2422,-3.2629,-3.2629,-3.2939,-3.2943,0,0,0,0,0,0,0,0,0,0,0,-3.2379,-3.2382,-3.2386,-3.2423,-3.2629,-3.2629,-3.2938,-3.2766,0,0,0,0,0,0,0,0,0,0,-3.2558,-3.2548,-3.2382,-3.2386,-3.2424,-3.2628,-3.2629,-3.2758,-3.2777,-3.2864,0,-3.2946,0,-3.2949,-3.2966,-3.2967,0,0,0,-3.2404,-3.2532,-3.2565,-3.2387,-3.2426,-3.2628,-3.253,-3.2768,-3.279,-3.2891,-3.295,-3.2961,-3.2955,-3.2968,-3.297,-3.3529,-3.3532,0,0,-3.2393,-3.2432,-3.255,-3.2581,-3.2549,-3.2524,-3.2537,-3.2781,-3.2849,-3.2951,-3.2967,-3.296,-3.2971,-3.2973,-3.3526,-3.353,0,0,0,-3.2372,-3.2425,-3.245,-3.2569,-3.2603,-3.253,-3.2545,-3.2838,-3.2843,-3.297,-3.2963,-3.2973,-3.2977,-3.3522,-3.3527,-3.3739,0,0,0,-3.2364,-3.2412,-3.2446,-3.2473,-3.2599,-3.2723,-3.2599,-3.2827,-3.2853,-3.2962,-3.2973,-3.298,-3.3518,-3.3525,-3.3725,-3.3834,0,0,0,-3.2359,-3.2411,-3.2449,-3.2474,-3.2564,-3.2718,-3.2736,-3.2831,-3.285,-3.2968,-3.2981,-3.3515,-3.3523,-3.3712,-3.3813,-3.3997,0,0,0,-3.2364,-3.2634,-3.2453,-3.2752,-3.2563,-3.2845,-3.2734,-3.2942,-3.3068,-3.2975,-3.3518,-3.3527,-3.3708,-3.38,-3.3983,-3.4162,-3.4238,0,0,-3.2726,-3.2679,-3.2851,-3.2696,-3.302,-3.281,-3.3166,-3.3245,-3.322,-3.3428,-3.3441,-3.3729,-3.3812,-3.3994,-3.4642,-3.4703,0,0,0,-3.2979,-3.3105,-3.3182,-3.3303,-3.3367,-3.3434,-3.3453,-3.3482,-3.3657,-3.3334,-3.384,-3.3888,-3.3994,-3.4078,-3.413,-3.422,-3.3565,-3.3564,-3.3563,-3.3552,-3.3505,-3.3789,-3.3768,-3.3886,-3.3903,-3.3997,-3.4039,-3.3957,-3.4078,-3.4142,-3.454,-3.4639,-3.4678,-3.4773,-3.4226,-3.4227,-3.4228,-3.4228,-3.4084,-3.4256,-3.4139,-3.4373,-3.4323,-3.4519,-3.4546,-3.4482,-3.466,-3.4488,-3.4578,-3.44,-3.4746,-3.4827,-3.4244,-3.4241,-3.4239,-3.4238,-3.4237,-3.4459,-3.4534,-3.4562,-3.4734,-3.4871,-3.4838,-3.5016,-3.4962,-3.4913,-3.5002,-3.5066,-3.5063,-3.5058,-3.5035,-3.5036,-3.5037,-3.5039,-3.504,-3.5041,-3.484,-3.4865,-3.502,-3.5112,-3.5183,-3.5271,-3.5289,-3.5359,-3.5424,-3.5371,-3.5371,-3.5282,-3.4786,-3.4667,-3.5062,-3.5058,-3.5055,-3.5053,-3.5052,-3.5407,-3.527,-3.551,-3.5582,-3.5686,-3.5829,-3.5755,-3.5902,-3.5952,-3.6042,-3.5931,-3.5571,-3.552,-3.5478,-3.5379,-3.5936,-3.5936,-3.5936,-3.5936,-3.5729,-3.5695,-3.593,-3.6049,-3.6158,-3.6117,-3.6394,-3.6411,-3.6408,-3.6437,-3.6347,-3.6209,-3.6168,-3.6141,-3.6086,-3.5993,-3.6693,-3.6694,-3.6694,-3.6078,-3.6053,-3.6299,-3.6291,-3.6368,-3.6437,-3.6697,-3.6841,-3.6808,-3.6724,-3.646,-3.6428,-3.6204,-3.6132,-3.6049,-3.5963,-3.5792,0,0]},{"header":{"parameterUnit":"m.s-1","parameterCategory":1,"la1":30.2992,"la2":30.254,"lo1":-89.0895,"lo2":-89.0443,"dy":0.0025,"dx":0.0025,"nx":19,"ny":19,"refTime":"2026-04-19T21:00:00:Z","depth":0,"parameterNumber":3,"parameterNumberName":"V-component_of_WINDS"},"data":[0,0,0,-2.6723,-2.6724,-2.6744,-2.6744,-2.6777,-2.6777,0,0,0,0,0,0,0,0,0,0,0,-2.6722,-2.6722,-2.6723,-2.6724,-2.6744,-2.6744,-2.6776,-2.6777,0,0,0,0,0,0,0,0,0,0,0,-2.6722,-2.6722,-2.6723,-2.6724,-2.6744,-2.6744,-2.6776,-2.6759,0,0,0,0,0,0,0,0,0,0,-2.6737,-2.6742,-2.6722,-2.6723,-2.6724,-2.6744,-2.6744,-2.6758,-2.676,-2.677,0,-2.6782,0,-2.678,-2.678,-2.678,0,0,0,-2.672,-2.674,-2.6741,-2.6723,-2.6724,-2.6744,-2.6734,-2.6759,-2.6761,-2.6773,-2.6782,-2.6783,-2.6781,-2.678,-2.678,-2.6854,-2.6855,0,0,-2.6719,-2.6728,-2.6739,-2.6743,-2.6741,-2.6733,-2.6735,-2.676,-2.677,-2.6782,-2.6784,-2.6781,-2.678,-2.678,-2.6854,-2.6854,0,0,0,-2.6718,-2.6728,-2.6728,-2.6742,-2.6745,-2.6734,-2.6736,-2.6769,-2.6769,-2.6784,-2.6781,-2.678,-2.6781,-2.6853,-2.6854,-2.6888,0,0,0,-2.6717,-2.6727,-2.6728,-2.6734,-2.6745,-2.6758,-2.6745,-2.6767,-2.6769,-2.6781,-2.678,-2.6781,-2.6853,-2.6854,-2.6886,-2.6902,0,0,0,-2.6719,-2.6727,-2.6732,-2.6734,-2.6743,-2.6757,-2.6758,-2.6767,-2.6768,-2.678,-2.6781,-2.6852,-2.6853,-2.6884,-2.6899,-2.6923,0,0,0,-2.6723,-2.6763,-2.6733,-2.6776,-2.6743,-2.6779,-2.6757,-2.6783,-2.6798,-2.678,-2.6853,-2.6854,-2.6883,-2.6897,-2.6921,-2.6944,-2.6954,0,0,-2.6779,-2.677,-2.6795,-2.6768,-2.6811,-2.6775,-2.6822,-2.6827,-2.6819,-2.6843,-2.6844,-2.6886,-2.6899,-2.6922,-2.7015,-2.7023,0,0,0,-2.6815,-2.6833,-2.6842,-2.6856,-2.6861,-2.6864,-2.6861,-2.6862,-2.6881,-2.6834,-2.6902,-2.6909,-2.6923,-2.6933,-2.694,-2.695,-2.686,-2.6859,-2.6859,-2.6907,-2.6895,-2.6934,-2.6923,-2.6937,-2.6932,-2.6941,-2.6941,-2.6926,-2.6942,-2.6948,-2.7006,-2.7019,-2.7024,-2.7034,-2.6961,-2.6961,-2.6961,-2.6961,-2.6985,-2.7007,-2.6984,-2.7014,-2.7,-2.7024,-2.702,-2.7007,-2.7027,-2.7001,-2.7012,-2.6983,-2.7034,-2.7042,-2.6964,-2.6963,-2.6963,-2.6963,-2.6963,-2.7043,-2.7051,-2.7051,-2.7068,-2.7083,-2.7071,-2.709,-2.7077,-2.7065,-2.7077,-2.708,-2.708,-2.7076,-2.708,-2.708,-2.708,-2.708,-2.708,-2.7081,-2.7101,-2.7101,-2.7118,-2.7125,-2.713,-2.7137,-2.713,-2.7136,-2.7138,-2.7127,-2.7127,-2.7108,-2.7042,-2.7024,-2.7084,-2.7083,-2.7083,-2.7082,-2.7082,-2.7182,-2.7161,-2.7189,-2.7195,-2.72,-2.7213,-2.7197,-2.7208,-2.721,-2.722,-2.7198,-2.7152,-2.7143,-2.7137,-2.7122,-2.7202,-2.7202,-2.7202,-2.7202,-2.7229,-2.7223,-2.7247,-2.7256,-2.7265,-2.7252,-2.7281,-2.7276,-2.7267,-2.7267,-2.7254,-2.7234,-2.7229,-2.7222,-2.7214,-2.72,-2.7299,-2.7299,-2.7299,-2.7277,-2.7271,-2.7299,-2.729,-2.7292,-2.7294,-2.732,-2.7331,-2.7317,-2.7302,-2.7266,-2.7262,-2.723,-2.7221,-2.7204,-2.7192,-2.7166,0,0]}]]